Mount Airy, NC

9:28 PM EDT on August 22, 2019 (GMT -0400)
Mount Airy-Surry County

Weather History for KMWK - May, 2019

Change the Weather History Date:

Tuesday, May 21, 2019

  Actual Average (WUND) Record (WUND)
Temperature  
Mean Temperature 70 °F -  
Max Temperature 84 °F - - (-1)
Min Temperature 57 °F - - (-1)
Cooling Degree Days 6    
Growing Degree Days 20 (Base 50)    
Moisture  
Dew Point 57 °F    
Average Humidity 61    
Maximum Humidity 87    
Minimum Humidity 37    
Precipitation  
Precipitation 0.00 in - - ()
Sea Level Pressure  
Sea Level Pressure 30.03 in    
Wind  
Wind Speed 1 mph ()    
Max Wind Speed 14 mph    
Max Gust Speed 18 mph    
Visibility 10.0 miles    
Events      
Averages and records for this station are not official NWS values.
T = Trace of Precipitation, MM = Missing Value Source: Averaged Metar Reports

Daily Weather History Graph

Daily Weather History Graph

Search for Another Location

Airport or City:

Astronomy

May. 21, 2019 Rise Set
Actual Time 6:11 AM EDT 8:26 PM EDT
Civil Twilight 5:42 AM EDT 8:56 PM EDT
Nautical Twilight 5:06 AM EDT 9:31 PM EDT
Astronomical Twilight 4:27 AM EDT 10:11 PM EDT
Moon 11:20 PM EDT (5/21) 8:27 AM EDT (5/21)
Length of Visible Light 15h 14m
Length of Day
14h 15m
Waning Gibbous, 91% of the Moon is Illuminated
May 21
Waning Gibbous
May 26
Last Quarter
Jun 3
New
Jun 10
First Quarter
Jun 17
Full

Hourly Weather History & Observations

Time (EDT) Temp. Heat Index Dew Point Humidity Pressure Visibility Wind Dir Wind Speed Gust Speed Precip Events Conditions
12:00 AM 63.7 °F - 59.0 °F 85% 30.00 in 10.0 mi Calm Calm - N/A   Clear
12:15 AM 62.4 °F - 58.3 °F 86% 30.00 in 10.0 mi Calm Calm - N/A   Clear
12:40 AM 63.9 °F - 58.6 °F 83% 30.00 in 10.0 mi Calm Calm - N/A   Clear
1:00 AM 64.9 °F - 56.5 °F 74% 30.01 in 10.0 mi Calm Calm - N/A   Clear
1:10 AM 63.7 °F - 56.7 °F 78% 30.01 in 10.0 mi Calm Calm - N/A   Clear
1:20 AM 63.9 °F - 56.5 °F 77% 30.01 in 10.0 mi Calm Calm - N/A   Clear
1:40 AM 62.6 °F - 56.3 °F 80% 30.00 in 10.0 mi Calm Calm - N/A   Clear
2:00 AM 63.5 °F - 54.9 °F 73% 30.00 in 10.0 mi Calm Calm - N/A   Clear
2:20 AM 61.7 °F - 55.8 °F 81% 30.00 in 10.0 mi Calm Calm - N/A   Clear
3:00 AM 59.9 °F - 55.4 °F 85% 29.99 in 10.0 mi Calm Calm - N/A   Clear
3:20 AM 60.4 °F - 55.2 °F 83% 29.99 in 10.0 mi Calm Calm - N/A   Clear
3:40 AM 62.4 °F - 54.7 °F 76% 30.00 in 10.0 mi NNW 3.5 mph - N/A   Clear
4:00 AM 63.3 °F - 54.5 °F 73% 29.99 in 10.0 mi Calm Calm - N/A   Clear
4:20 AM 63.0 °F - 54.5 °F 74% 29.99 in 10.0 mi North 3.5 mph - N/A   Clear
4:40 AM 62.2 °F - 54.3 °F 75% 29.99 in 10.0 mi Calm Calm - N/A   Clear
5:00 AM 58.3 °F - 53.8 °F 85% 30.00 in 10.0 mi Calm Calm - N/A   Clear
5:20 AM 58.3 °F - 54.0 °F 86% 30.00 in 10.0 mi Calm Calm - N/A   Clear
5:40 AM 57.7 °F - 53.4 °F 85% 30.01 in 10.0 mi Calm Calm - N/A   Clear
6:00 AM 57.2 °F - 53.4 °F 87% 30.02 in 10.0 mi Calm Calm - N/A   Clear
6:20 AM 58.3 °F - 53.6 °F 84% 30.02 in 10.0 mi Calm Calm - N/A   Clear
6:40 AM 58.5 °F - 54.1 °F 86% 30.03 in 10.0 mi Calm Calm - N/A   Clear
7:20 AM 60.4 °F - 55.6 °F 84% 30.03 in 10.0 mi Calm Calm - N/A   Clear
7:40 AM 62.8 °F - 57.9 °F 84% 30.04 in 10.0 mi Calm Calm - N/A   Clear
8:00 AM 65.7 °F - 59.4 °F 80% 30.04 in 10.0 mi Calm Calm - N/A   Clear
8:40 AM 69.8 °F - 58.6 °F 68% 30.05 in 10.0 mi Calm Calm - N/A   Clear
9:00 AM 69.8 °F - 60.8 °F 73% 30.06 in 10.0 mi Calm Calm - N/A   Clear
9:20 AM 72.5 °F - 59.2 °F 63% 30.06 in 10.0 mi Calm Calm - N/A   Clear
9:40 AM 73.9 °F - 59.9 °F 61% 30.06 in 10.0 mi Calm Calm - N/A   Clear
10:00 AM 73.8 °F - 59.7 °F 61% 30.06 in 10.0 mi Calm Calm - N/A   Clear
10:20 AM 75.0 °F - 60.1 °F 60% 30.06 in 10.0 mi Calm Calm - N/A   Clear
10:40 AM 74.7 °F - 59.7 °F 60% 30.06 in 10.0 mi Calm Calm - N/A   Clear
11:00 AM 76.1 °F - 59.4 °F 56% 30.06 in 10.0 mi Calm Calm - N/A   Clear
11:20 AM 76.5 °F - 56.7 °F 50% 30.06 in 10.0 mi Calm Calm - N/A   Clear
11:40 AM 77.4 °F - 57.9 °F 51% 30.06 in 10.0 mi Calm Calm - N/A   Clear
12:00 PM 77.9 °F - 59.0 °F 52% 30.06 in 10.0 mi Calm Calm - N/A   Clear
12:20 PM 79.5 °F - 55.8 °F 44% 30.06 in 10.0 mi Calm Calm - N/A   Clear
12:40 PM 80.2 °F 80.3 °F 55.0 °F 42% 30.05 in 10.0 mi East 3.5 mph - N/A   Clear
1:00 PM 81.1 °F 81.1 °F 56.5 °F 43% 30.04 in 10.0 mi NNE 3.5 mph - N/A   Clear
1:20 PM 80.8 °F 80.7 °F 55.8 °F 42% 30.04 in 10.0 mi Calm Calm - N/A   Clear
1:40 PM 82.0 °F 81.7 °F 56.8 °F 42% 30.04 in 10.0 mi Calm Calm - N/A   Clear
2:00 PM 81.5 °F 81.5 °F 57.6 °F 44% 30.03 in 10.0 mi SSW 3.5 mph - N/A   Clear
2:20 PM 81.7 °F 81.3 °F 55.9 °F 41% 30.02 in 10.0 mi Calm Calm - N/A   Clear
2:40 PM 82.4 °F 81.8 °F 55.8 °F 40% 30.02 in 10.0 mi Calm Calm - N/A   Clear
3:00 PM 82.8 °F 82.0 °F 55.8 °F 39% 30.01 in 10.0 mi Calm Calm - N/A   Clear
3:20 PM 82.9 °F 82.1 °F 55.8 °F 39% 30.02 in 10.0 mi Calm Calm - N/A   Clear
3:40 PM 82.9 °F 82.3 °F 56.3 °F 40% 30.01 in 10.0 mi South 6.9 mph - N/A   Clear
4:00 PM 83.8 °F 83.0 °F 56.5 °F 39% 30.01 in 10.0 mi Calm Calm - N/A   Clear
4:20 PM 83.3 °F 82.6 °F 56.7 °F 40% 30.00 in 10.0 mi South 4.6 mph - N/A   Clear
4:40 PM 83.3 °F 82.5 °F 55.8 °F 39% 30.00 in 10.0 mi SW 3.5 mph - N/A   Clear
5:00 PM 83.3 °F 82.5 °F 55.9 °F 39% 30.01 in 10.0 mi Calm Calm - N/A   Clear
5:20 PM 83.7 °F 82.8 °F 56.3 °F 39% 30.01 in 10.0 mi Calm Calm - N/A   Clear
5:40 PM 84.0 °F 83.3 °F 57.4 °F 40% 30.01 in 10.0 mi WSW 3.5 mph - N/A   Clear
6:00 PM 83.5 °F 82.5 °F 55.6 °F 38% 30.01 in 10.0 mi Calm Calm - N/A   Clear
6:20 PM 83.5 °F 82.5 °F 55.6 °F 38% 30.01 in 10.0 mi Calm Calm - N/A   Clear
6:40 PM 83.3 °F 82.3 °F 55.4 °F 38% 30.01 in 10.0 mi SSE 3.5 mph - N/A   Clear
7:00 PM 83.3 °F 82.2 °F 54.3 °F 37% 30.02 in 10.0 mi Calm Calm - N/A   Clear
7:20 PM 82.4 °F 82.0 °F 57.0 °F 42% 30.02 in 10.0 mi Calm Calm - N/A   Clear
7:40 PM 82.6 °F 82.5 °F 58.8 °F 44% 30.02 in 10.0 mi East 3.5 mph - N/A   Clear
8:00 PM 80.6 °F 81.5 °F 61.2 °F 51% 30.03 in 10.0 mi ENE 3.5 mph - N/A   Clear
8:20 PM 78.8 °F - 62.1 °F 56% 30.04 in 10.0 mi ENE 5.8 mph - N/A   Clear
8:40 PM 78.1 °F - 62.2 °F 58% 30.04 in 10.0 mi ENE 6.9 mph - N/A   Clear
9:00 PM 77.4 °F - 62.4 °F 60% 30.05 in 10.0 mi East 8.1 mph - N/A   Clear
9:20 PM 76.5 °F - 62.1 °F 61% 30.05 in 10.0 mi ENE 10.4 mph - N/A   Clear
9:40 PM 75.6 °F - 62.4 °F 64% 30.07 in 10.0 mi ENE 12.7 mph 17.3 mph N/A   Clear
10:00 PM 73.9 °F - 62.1 °F 66% 30.08 in 10.0 mi ENE 12.7 mph 18.4 mph N/A   Clear
10:20 PM 73.4 °F - 61.2 °F 65% 30.09 in 10.0 mi ENE 11.5 mph 18.4 mph N/A   Clear
10:40 PM 72.7 °F - 60.1 °F 64% 30.10 in 10.0 mi East 13.8 mph 18.4 mph N/A   Clear
11:00 PM 72.5 °F - 59.5 °F 64% 30.10 in 10.0 mi East 12.7 mph - N/A   Clear
11:20 PM 72.5 °F - 59.2 °F 63% 30.11 in 10.0 mi East 13.8 mph 18.4 mph N/A   Clear
11:40 PM 72.3 °F - 59.4 °F 64% 30.12 in 10.0 mi ENE 11.5 mph - N/A   Clear